QPF
0.07 0.08 0.08 0.11 0.12 0.16 0.12 0.10 0.10 0.11 0.11 0.12 0.13 0.14 0.14 0.14 0.12 0.09 0.09 0.09 0.07 0.05 0.05 0.04 0.04 0.05 0.04 0.04 0.03 0.02 0.02 0.02 0.01 0.01 0.00 0.00 0.00 0.00 0.00 0.00 0.00 0.01 0.01
0.05 0.07 0.09 0.09 0.11 0.11 0.08 0.08 0.10 0.11 0.11 0.11 0.13 0.15 0.14 0.13 0.14 0.13 0.10 0.09 0.08 0.05 0.05 0.04 0.04 0.04 0.04 0.04 0.04 0.03 0.02 0.02 0.01 0.01 0.00 0.00 0.00 0.01 0.01 0.01 0.01 0.02 0.02
0.05 0.07 0.08 0.08 0.09 0.08 0.09 0.10 0.12 0.13 0.11 0.16 0.20 0.19 0.19 0.16 0.15 0.14 0.12 0.10 0.09 0.07 0.06 0.05 0.04 0.03 0.03 0.04 0.04 0.04 0.04 0.03 0.02 0.01 0.01 0.01 0.00 0.00 0.01 0.03 0.04 0.04 0.03
0.06 0.09 0.10 0.10 0.09 0.08 0.10 0.13 0.16 0.17 0.16 0.20 0.30 0.28 0.21 0.15 0.12 0.10 0.09 0.10 0.08 0.07 0.06 0.05 0.04 0.03 0.02 0.04 0.06 0.06 0.05 0.04 0.03 0.02 0.01 0.01 0.01 0.01 0.01 0.03 0.04 0.03 0.02
0.08 0.09 0.09 0.09 0.08 0.08 0.10 0.15 0.23 0.29 0.25 0.27 0.27 0.26 0.21 0.15 0.12 0.10 0.08 0.07 0.06 0.06 0.05 0.04 0.03 0.02 0.02 0.01 0.02 0.03 0.05 0.06 0.05 0.03 0.02 0.01 0.01 0.00 0.01 0.02 0.02 0.02 0.02
0.07 0.08 0.09 0.11 0.12 0.11 0.09 0.09 0.15 0.23 0.25 0.22 0.20 0.20 0.19 0.14 0.10 0.10 0.08 0.07 0.06 0.04 0.04 0.04 0.03 0.03 0.03 0.02 0.01 0.01 0.02 0.04 0.04 0.04 0.03 0.03 0.02 0.01 0.01 0.01 0.01 0.02 0.02
0.05 0.06 0.08 0.09 0.09 0.10 0.11 0.11 0.13 0.16 0.21 0.18 0.17 0.17 0.15 0.14 0.11 0.10 0.10 0.10 0.08 0.06 0.05 0.04 0.03 0.03 0.03 0.03 0.03 0.04 0.03 0.02 0.03 0.03 0.03 0.04 0.03 0.03 0.02 0.02 0.02 0.02 0.01
0.05 0.06 0.06 0.06 0.05 0.06 0.06 0.07 0.10 0.15 0.19 0.16 0.13 0.13 0.14 0.12 0.12 0.11 0.10 0.09 0.07 0.05 0.05 0.04 0.04 0.03 0.03 0.04 0.03 0.04 0.04 0.04 0.03 0.03 0.03 0.03 0.04 0.03 0.02 0.02 0.03 0.02 0.01
0.05 0.04 0.03 0.03 0.03 0.05 0.06 0.05 0.07 0.11 0.16 0.13 0.11 0.10 0.13 0.12 0.14 0.13 0.09 0.06 0.04 0.04 0.03 0.03 0.03 0.04 0.04 0.04 0.03 0.02 0.04 0.05 0.04 0.03 0.02 0.03 0.04 0.03 0.02 0.02 0.02 0.02 0.01
0.04 0.03 0.03 0.04 0.03 0.03 0.06 0.09 0.09 0.07 0.10 0.10 0.12 0.13 0.12 0.12 0.11 0.10 0.05 0.02 0.02 0.03 0.03 0.03 0.03 0.03 0.03 0.03 0.03 0.03 0.04 0.05 0.03 0.03 0.02 0.02 0.02 0.02 0.02 0.01 0.01 0.02 0.01
0.03 0.02 0.03 0.06 0.07 0.06 0.06 0.09 0.08 0.06 0.06 0.06 0.08 0.11 0.09 0.08 0.05 0.03 0.02 0.02 0.02 0.03 0.02 0.02 0.03 0.02 0.02 0.03 0.02 0.02 0.03 0.04 0.02 0.02 0.03 0.02 0.02 0.02 0.02 0.01 0.01 0.01 0.01
0.02 0.03 0.02 0.03 0.05 0.09 0.09 0.08 0.06 0.05 0.06 0.06 0.05 0.05 0.05 0.04 0.03 0.02 0.02 0.03 0.03 0.02 0.01 0.01 0.02 0.02 0.02 0.02 0.03 0.04 0.04 0.04 0.03 0.03 0.03 0.03 0.03 0.03 0.02 0.02 0.02 0.02 0.02
0.03 0.03 0.03 0.04 0.05 0.07 0.08 0.07 0.06 0.05 0.07 0.05 0.04 0.03 0.03 0.03 0.02 0.02 0.03 0.04 0.03 0.02 0.01 0.01 0.02 0.03 0.03 0.02 0.03 0.04 0.05 0.04 0.04 0.04 0.03 0.03 0.03 0.04 0.04 0.04 0.04 0.04 0.04
0.02 0.03 0.03 0.05 0.06 0.07 0.06 0.04 0.05 0.06 0.05 0.04 0.04 0.03 0.02 0.02 0.02 0.03 0.03 0.04 0.04 0.03 0.03 0.03 0.04 0.03 0.03 0.03 0.03 0.04 0.04 0.05 0.05 0.05 0.05 0.07 0.08 0.09 0.08 0.06 0.06 0.06 0.05
0.02 0.02 0.04 0.05 0.06 0.06 0.05 0.04 0.04 0.05 0.05 0.05 0.04 0.03 0.03 0.03 0.03 0.03 0.04 0.04 0.04 0.04 0.03 0.04 0.04 0.04 0.04 0.04 0.05 0.05 0.04 0.05 0.05 0.05 0.06 0.07 0.08 0.08 0.07 0.06 0.05 0.04 0.04
0.02 0.02 0.02 0.02 0.04 0.05 0.04 0.03 0.03 0.03 0.03 0.04 0.04 0.04 0.03 0.03 0.03 0.03 0.03 0.02 0.03 0.03 0.03 0.03 0.04 0.04 0.03 0.04 0.04 0.04 0.04 0.04 0.05 0.04 0.03 0.03 0.02 0.02 0.01 0.02 0.02 0.03 0.03
0.03 0.02 0.02 0.02 0.03 0.03 0.02 0.02 0.02 0.03 0.03 0.04 0.04 0.03 0.03 0.02 0.03 0.03 0.02 0.01 0.02 0.02 0.02 0.02 0.02 0.02 0.02 0.02 0.02 0.02 0.02 0.02 0.02 0.03 0.02 0.01 0.00 0.00 0.01 0.01 0.01 0.01 0.01
0.03 0.03 0.02 0.03 0.03 0.03 0.03 0.03 0.02 0.03 0.03 0.04 0.03 0.03 0.02 0.02 0.02 0.02 0.01 0.01 0.02 0.02 0.01 0.01 0.01 0.01 0.02 0.03 0.01 0.02 0.02 0.01 0.01 0.01 0.01 0.01 0.01 0.01 0.02 0.03 0.03 0.02 0.02
0.03 0.03 0.02 0.02 0.02 0.02 0.02 0.03 0.03 0.04 0.04 0.04 0.03 0.03 0.02 0.01 0.01 0.01 0.01 0.02 0.03 0.02 0.01 0.01 0.01 0.01 0.02 0.02 0.02 0.02 0.01 0.01 0.01 0.01 0.01 0.01 0.01 0.02 0.05 0.04 0.03 0.02 0.02
0.04 0.03 0.01 0.01 0.01 0.01 0.01 0.02 0.03 0.04 0.04 0.03 0.03 0.02 0.01 0.01 0.01 0.02 0.01 0.01 0.01 0.02 0.01 0.02 0.02 0.02 0.02 0.02 0.02 0.01 0.01 0.01 0.01 0.00 0.01 0.01 0.01 0.01 0.01 0.01 0.01 0.01 0.01
0.04 0.02 0.01 0.01 0.02 0.03 0.03 0.02 0.03 0.04 0.04 0.03 0.02 0.01 0.01 0.01 0.01 0.02 0.01 0.01 0.01 0.01 0.01 0.01 0.02 0.03 0.02 0.01 0.01 0.01 0.02 0.02 0.01 0.00 0.01 0.01 0.01 0.01 0.00 0.01 0.00 0.01 0.00
0.02 0.01 0.01 0.02 0.03 0.04 0.03 0.03 0.03 0.04 0.04 0.03 0.02 0.02 0.02 0.02 0.02 0.02 0.03 0.02 0.02 0.02 0.01 0.02 0.03 0.03 0.02 0.01 0.02 0.02 0.01 0.01 0.01 0.01 0.01 0.01 0.01 0.01 0.00 0.00 0.00 0.01 0.01
0.01 0.01 0.01 0.01 0.01 0.01 0.02 0.02 0.02 0.03 0.03 0.03 0.02 0.01 0.02 0.02 0.03 0.04 0.03 0.03 0.04 0.04 0.04 0.03 0.03 0.02 0.02 0.02 0.02 0.01 0.01 0.01 0.01 0.01 0.01 0.01 0.01 0.00 0.00 0.00 0.01 0.01 0.01
0.01 0.01 0.01 0.01 0.00 0.00 0.00 0.01 0.01 0.01 0.02 0.02 0.01 0.01 0.02 0.02 0.02 0.03 0.05 0.06 0.06 0.06 0.04 0.02 0.01 0.02 0.02 0.02 0.01 0.01 0.02 0.02 0.02 0.01 0.02 0.02 0.01 0.01 0.01 0.00 0.00 0.00 0.00
0.02 0.02 0.02 0.02 0.01 0.01 0.00 0.00 0.01 0.01 0.02 0.03 0.03 0.03 0.03 0.02 0.02 0.02 0.02 0.03 0.03 0.03 0.03 0.03 0.02 0.02 0.01 0.01 0.01 0.01 0.01 0.02 0.02 0.02 0.02 0.02 0.02 0.01 0.01 0.01 0.01 0.01 0.00
0.01 0.02 0.01 0.02 0.03 0.02 0.01 0.01 0.01 0.01 0.01 0.03 0.05 0.04 0.03 0.03 0.03 0.02 0.02 0.02 0.01 0.01 0.01 0.02 0.01 0.01 0.01 0.01 0.01 0.01 0.01 0.01 0.01 0.02 0.01 0.01 0.01 0.01 0.01 0.01 0.01 0.01 0.01
MSLP
1013.15 1012.67 1012.20 1011.69 1011.11 1010.46 1009.78 1009.15 1008.64 1008.32 1008.21 1008.30 1008.54 1008.87 1009.19 1009.44 1009.57 1009.58 1009.50 1009.38 1009.29 1009.28 1009.38 1009.60 1009.91 1010.26 1010.60 1010.88 1011.08 1011.19 1011.21 1011.18 1011.11 1011.04 1010.97 1010.89 1010.80 1010.67 1010.49 1010.25 1009.96 1009.65 1009.36
1014.48 1014.02 1013.55 1013.00 1012.35 1011.62 1010.84 1010.11 1009.50 1009.08 1008.88 1008.89 1009.07 1009.33 1009.59 1009.79 1009.86 1009.82 1009.69 1009.53 1009.40 1009.36 1009.42 1009.60 1009.87 1010.18 1010.46 1010.69 1010.84 1010.89 1010.86 1010.79 1010.71 1010.64 1010.58 1010.53 1010.48 1010.38 1010.22 1009.99 1009.71 1009.39 1009.05
1015.50 1015.08 1014.62 1014.08 1013.41 1012.65 1011.83 1011.05 1010.38 1009.90 1009.64 1009.59 1009.70 1009.90 1010.11 1010.25 1010.29 1010.22 1010.06 1009.88 1009.74 1009.66 1009.70 1009.84 1010.05 1010.29 1010.51 1010.66 1010.72 1010.71 1010.63 1010.53 1010.43 1010.35 1010.31 1010.29 1010.26 1010.19 1010.05 1009.83 1009.53 1009.17 1008.80
1016.22 1015.85 1015.43 1014.92 1014.28 1013.53 1012.73 1011.94 1011.26 1010.76 1010.46 1010.36 1010.42 1010.56 1010.72 1010.82 1010.82 1010.74 1010.58 1010.40 1010.25 1010.17 1010.18 1010.28 1010.43 1010.59 1010.72 1010.78 1010.76 1010.68 1010.54 1010.41 1010.29 1010.22 1010.19 1010.19 1010.18 1010.12 1009.98 1009.74 1009.41 1009.01 1008.57
1016.73 1016.39 1016.02 1015.55 1014.97 1014.28 1013.53 1012.79 1012.14 1011.64 1011.32 1011.19 1011.20 1011.28 1011.39 1011.45 1011.43 1011.34 1011.19 1011.02 1010.88 1010.80 1010.79 1010.85 1010.94 1011.02 1011.06 1011.03 1010.94 1010.78 1010.59 1010.42 1010.29 1010.22 1010.19 1010.20 1010.19 1010.12 1009.96 1009.69 1009.32 1008.86 1008.36
1017.09 1016.78 1016.45 1016.05 1015.53 1014.92 1014.25 1013.58 1012.99 1012.52 1012.20 1012.04 1012.00 1012.04 1012.09 1012.11 1012.07 1011.97 1011.82 1011.67 1011.54 1011.47 1011.44 1011.46 1011.49 1011.50 1011.46 1011.35 1011.17 1010.95 1010.71 1010.51 1010.36 1010.27 1010.24 1010.24 1010.21 1010.12 1009.93 1009.63 1009.20 1008.70 1008.14
1017.40 1017.11 1016.81 1016.46 1016.02 1015.50 1014.92 1014.34 1013.81 1013.37 1013.06 1012.88 1012.80 1012.78 1012.77 1012.74 1012.67 1012.56 1012.42 1012.28 1012.17 1012.09 1012.05 1012.03 1012.00 1011.94 1011.82 1011.62 1011.38 1011.09 1010.81 1010.57 1010.40 1010.29 1010.24 1010.21 1010.16 1010.04 1009.82 1009.47 1009.01 1008.47 1007.88
1017.71 1017.41 1017.14 1016.83 1016.46 1016.03 1015.54 1015.04 1014.58 1014.18 1013.88 1013.67 1013.54 1013.46 1013.40 1013.32 1013.21 1013.08 1012.93 1012.79 1012.67 1012.59 1012.52 1012.46 1012.38 1012.24 1012.05 1011.78 1011.47 1011.13 1010.81 1010.53 1010.32 1010.19 1010.11 1010.04 1009.96 1009.80 1009.54 1009.17 1008.69 1008.14 1007.55
1018.03 1017.72 1017.46 1017.19 1016.87 1016.51 1016.10 1015.68 1015.27 1014.91 1014.62 1014.39 1014.21 1014.07 1013.94 1013.80 1013.65 1013.49 1013.32 1013.16 1013.03 1012.92 1012.82 1012.71 1012.57 1012.37 1012.11 1011.77 1011.40 1011.01 1010.64 1010.32 1010.08 1009.90 1009.78 1009.68 1009.55 1009.36 1009.08 1008.70 1008.23 1007.69 1007.14
1018.36 1018.05 1017.78 1017.53 1017.26 1016.95 1016.60 1016.24 1015.88 1015.55 1015.26 1015.00 1014.78 1014.58 1014.39 1014.19 1013.99 1013.78 1013.58 1013.39 1013.23 1013.08 1012.94 1012.78 1012.57 1012.31 1011.98 1011.59 1011.16 1010.72 1010.31 1009.95 1009.66 1009.44 1009.27 1009.11 1008.95 1008.73 1008.44 1008.07 1007.63 1007.15 1006.65
1018.71 1018.38 1018.11 1017.87 1017.61 1017.33 1017.03 1016.71 1016.38 1016.07 1015.78 1015.50 1015.25 1014.99 1014.74 1014.48 1014.22 1013.96 1013.72 1013.50 1013.29 1013.10 1012.91 1012.69 1012.43 1012.11 1011.72 1011.28 1010.81 1010.33 1009.87 1009.47 1009.13 1008.85 1008.63 1008.42 1008.22 1007.98 1007.68 1007.33 1006.94 1006.53 1006.12
1019.08 1018.74 1018.45 1018.20 1017.94 1017.67 1017.39 1017.09 1016.79 1016.49 1016.19 1015.90 1015.61 1015.31 1015.01 1014.70 1014.38 1014.08 1013.79 1013.52 1013.27 1013.03 1012.79 1012.52 1012.21 1011.84 1011.42 1010.94 1010.43 1009.91 1009.42 1008.97 1008.58 1008.26 1007.97 1007.71 1007.46 1007.20 1006.90 1006.58 1006.24 1005.90 1005.59
1019.48 1019.12 1018.81 1018.53 1018.26 1017.98 1017.70 1017.41 1017.12 1016.82 1016.52 1016.21 1015.89 1015.56 1015.22 1014.86 1014.51 1014.16 1013.83 1013.52 1013.23 1012.95 1012.67 1012.36 1012.01 1011.61 1011.15 1010.65 1010.12 1009.58 1009.06 1008.57 1008.14 1007.75 1007.41 1007.10 1006.80 1006.50 1006.20 1005.89 1005.60 1005.33 1005.09
1019.92 1019.54 1019.20 1018.88 1018.58 1018.28 1017.98 1017.69 1017.39 1017.09 1016.78 1016.46 1016.12 1015.77 1015.39 1015.01 1014.62 1014.24 1013.88 1013.54 1013.22 1012.91 1012.60 1012.26 1011.89 1011.47 1011.00 1010.49 1009.95 1009.40 1008.85 1008.34 1007.86 1007.42 1007.03 1006.66 1006.31 1005.97 1005.66 1005.36 1005.09 1004.86 1004.69
1020.40 1019.99 1019.62 1019.26 1018.91 1018.58 1018.25 1017.94 1017.62 1017.31 1016.99 1016.66 1016.31 1015.94 1015.55 1015.15 1014.75 1014.35 1013.98 1013.62 1013.29 1012.96 1012.64 1012.29 1011.91 1011.49 1011.02 1010.51 1009.97 1009.41 1008.85 1008.31 1007.80 1007.32 1006.87 1006.44 1006.05 1005.67 1005.33 1005.02 1004.76 1004.56 1004.42
1020.89 1020.46 1020.04 1019.64 1019.25 1018.87 1018.52 1018.17 1017.84 1017.52 1017.19 1016.84 1016.48 1016.10 1015.71 1015.31 1014.90 1014.51 1014.13 1013.78 1013.45 1013.12 1012.80 1012.45 1012.08 1011.66 1011.20 1010.70 1010.16 1009.60 1009.04 1008.48 1007.94 1007.43 1006.93 1006.46 1006.02 1005.60 1005.23 1004.90 1004.63 1004.44 1004.31
1021.33 1020.88 1020.43 1019.99 1019.56 1019.16 1018.77 1018.40 1018.05 1017.71 1017.36 1017.01 1016.64 1016.26 1015.87 1015.48 1015.09 1014.71 1014.35 1014.02 1013.70 1013.39 1013.08 1012.74 1012.38 1011.97 1011.52 1011.02 1010.49 1009.93 1009.37 1008.80 1008.24 1007.70 1007.17 1006.67 1006.19 1005.75 1005.35 1005.00 1004.71 1004.50 1004.37
1021.67 1021.21 1020.74 1020.28 1019.83 1019.40 1019.00 1018.61 1018.24 1017.88 1017.52 1017.16 1016.79 1016.42 1016.04 1015.66 1015.30 1014.95 1014.62 1014.32 1014.03 1013.74 1013.44 1013.13 1012.77 1012.37 1011.92 1011.42 1010.89 1010.34 1009.77 1009.19 1008.62 1008.07 1007.53 1007.01 1006.52 1006.06 1005.64 1005.28 1004.98 1004.76 1004.61
1021.85 1021.39 1020.93 1020.47 1020.02 1019.59 1019.17 1018.78 1018.40 1018.03 1017.66 1017.30 1016.93 1016.57 1016.20 1015.85 1015.52 1015.21 1014.92 1014.65 1014.39 1014.13 1013.86 1013.55 1013.20 1012.80 1012.34 1011.84 1011.31 1010.74 1010.17 1009.59 1009.02 1008.47 1007.93 1007.42 1006.94 1006.48 1006.07 1005.70 1005.40 1005.16 1005.00
1021.85 1021.42 1020.98 1020.55 1020.12 1019.70 1019.30 1018.91 1018.53 1018.15 1017.78 1017.42 1017.06 1016.70 1016.36 1016.03 1015.73 1015.46 1015.21 1014.98 1014.76 1014.52 1014.26 1013.96 1013.61 1013.20 1012.73 1012.22 1011.68 1011.10 1010.53 1009.95 1009.39 1008.86 1008.34 1007.85 1007.39 1006.96 1006.57 1006.22 1005.93 1005.69 1005.51
1021.68 1021.30 1020.91 1020.52 1020.14 1019.75 1019.37 1019.00 1018.63 1018.25 1017.89 1017.52 1017.16 1016.81 1016.49 1016.19 1015.92 1015.68 1015.46 1015.26 1015.07 1014.85 1014.60 1014.30 1013.95 1013.53 1013.05 1012.52 1011.96 1011.39 1010.81 1010.25 1009.71 1009.20 1008.72 1008.27 1007.85 1007.46 1007.11 1006.79 1006.51 1006.28 1006.09
1021.39 1021.08 1020.75 1020.43 1020.09 1019.75 1019.41 1019.06 1018.70 1018.34 1017.97 1017.60 1017.24 1016.90 1016.58 1016.30 1016.05 1015.83 1015.64 1015.47 1015.29 1015.08 1014.84 1014.54 1014.17 1013.75 1013.26 1012.72 1012.16 1011.58 1011.01 1010.47 1009.96 1009.49 1009.05 1008.65 1008.28 1007.94 1007.63 1007.35 1007.09 1006.87 1006.69
1021.07 1020.82 1020.56 1020.30 1020.02 1019.73 1019.43 1019.11 1018.77 1018.41 1018.04 1017.68 1017.31 1016.97 1016.65 1016.37 1016.12 1015.91 1015.73 1015.56 1015.38 1015.18 1014.94 1014.64 1014.27 1013.83 1013.34 1012.81 1012.25 1011.69 1011.14 1010.62 1010.15 1009.72 1009.33 1008.98 1008.66 1008.37 1008.10 1007.84 1007.61 1007.40 1007.22
1020.77 1020.57 1020.38 1020.17 1019.95 1019.70 1019.44 1019.14 1018.82 1018.47 1018.11 1017.74 1017.37 1017.01 1016.68 1016.39 1016.13 1015.91 1015.72 1015.54 1015.36 1015.15 1014.90 1014.59 1014.22 1013.79 1013.31 1012.79 1012.25 1011.71 1011.19 1010.71 1010.28 1009.89 1009.54 1009.24 1008.96 1008.71 1008.47 1008.24 1008.02 1007.82 1007.63
1020.52 1020.37 1020.22 1020.06 1019.88 1019.67 1019.43 1019.16 1018.86 1018.52 1018.16 1017.78 1017.41 1017.04 1016.69 1016.38 1016.10 1015.85 1015.63 1015.43 1015.22 1014.99 1014.73 1014.42 1014.06 1013.64 1013.17 1012.68 1012.17 1011.67 1011.19 1010.75 1010.35 1010.00 1009.69 1009.41 1009.16 1008.93 1008.71 1008.49 1008.27 1008.07 1007.87
1020.34 1020.22 1020.09 1019.95 1019.79 1019.61 1019.40 1019.15 1018.86 1018.54 1018.18 1017.81 1017.43 1017.05 1016.68 1016.34 1016.03 1015.76 1015.50 1015.26 1015.02 1014.77 1014.49 1014.17 1013.81 1013.41 1012.97 1012.51 1012.04 1011.57 1011.13 1010.73 1010.36 1010.04 1009.75 1009.49 1009.25 1009.02 1008.80 1008.57 1008.35 1008.12 1007.91
Thickness
5719 5719 5720 5719 5718 5718 5716 5715 5713 5711 5710 5708 5705 5703 5701 5700 5699 5698 5697 5695 5693 5690 5688 5688 5687 5686 5684 5683 5681 5680 5677 5675 5674 5672 5670 5671 5672 5671 5671 5671 5670 5670 5669
5713 5712 5712 5711 5710 5709 5708 5707 5706 5705 5703 5702 5700 5698 5697 5695 5695 5694 5692 5691 5689 5687 5686 5685 5683 5682 5680 5678 5677 5675 5672 5670 5669 5666 5663 5661 5663 5665 5666 5665 5665 5664 5664
5705 5704 5703 5703 5703 5702 5701 5701 5700 5699 5698 5696 5695 5693 5690 5689 5688 5688 5687 5686 5685 5683 5683 5681 5679 5678 5676 5674 5673 5671 5669 5665 5663 5661 5658 5654 5653 5655 5659 5659 5659 5658 5658
5699 5698 5697 5695 5695 5695 5695 5695 5694 5693 5692 5690 5689 5688 5683 5683 5683 5683 5682 5683 5682 5680 5678 5677 5675 5673 5672 5670 5669 5667 5664 5661 5658 5655 5654 5652 5651 5647 5649 5652 5652 5652 5652
5694 5693 5692 5690 5689 5689 5689 5689 5688 5686 5685 5684 5682 5682 5679 5677 5678 5678 5677 5676 5676 5675 5674 5673 5671 5669 5667 5666 5664 5662 5659 5657 5654 5651 5649 5647 5644 5643 5641 5642 5644 5645 5646
5689 5688 5687 5685 5684 5683 5682 5681 5680 5679 5679 5678 5676 5675 5674 5672 5672 5671 5670 5670 5670 5669 5669 5669 5668 5666 5664 5661 5659 5658 5655 5653 5651 5648 5645 5642 5641 5638 5636 5635 5635 5636 5639
5683 5681 5680 5679 5678 5677 5677 5675 5673 5672 5672 5672 5671 5671 5670 5668 5667 5666 5666 5665 5663 5663 5664 5665 5664 5662 5660 5658 5656 5653 5651 5649 5647 5644 5642 5640 5638 5635 5632 5630 5629 5629 5631
5677 5677 5675 5674 5673 5673 5672 5671 5670 5667 5667 5667 5667 5667 5666 5664 5663 5663 5662 5661 5660 5659 5660 5660 5659 5658 5656 5654 5652 5649 5648 5645 5643 5641 5639 5636 5635 5632 5629 5626 5624 5623 5624
5673 5673 5672 5671 5669 5668 5668 5667 5665 5664 5663 5662 5662 5662 5662 5660 5659 5658 5658 5657 5657 5657 5657 5656 5655 5653 5651 5650 5648 5645 5644 5642 5640 5638 5635 5633 5631 5628 5626 5622 5620 5617 5617
5669 5668 5668 5667 5666 5665 5665 5664 5662 5661 5660 5659 5659 5659 5658 5657 5656 5655 5654 5654 5654 5653 5652 5651 5650 5648 5647 5646 5644 5642 5640 5638 5636 5634 5631 5629 5627 5624 5621 5617 5614 5612 5610
5663 5664 5664 5664 5664 5662 5661 5660 5659 5658 5658 5657 5656 5655 5655 5654 5653 5652 5650 5650 5650 5649 5648 5647 5645 5644 5643 5642 5639 5638 5636 5634 5632 5629 5627 5625 5623 5619 5616 5613 5610 5607 5604
5659 5659 5659 5659 5659 5658 5657 5657 5657 5656 5655 5654 5653 5651 5651 5650 5649 5648 5647 5647 5646 5645 5645 5643 5642 5640 5639 5637 5635 5633 5632 5630 5628 5626 5623 5621 5618 5615 5613 5609 5606 5604 5601
5655 5655 5654 5655 5654 5654 5654 5654 5654 5654 5652 5651 5650 5648 5647 5646 5645 5645 5644 5644 5643 5642 5641 5640 5638 5637 5635 5633 5631 5630 5628 5626 5623 5621 5619 5617 5614 5611 5609 5606 5603 5600 5598
5652 5651 5650 5651 5651 5651 5651 5651 5651 5651 5650 5649 5648 5646 5644 5643 5643 5642 5642 5641 5640 5639 5637 5636 5634 5633 5632 5630 5628 5626 5624 5621 5619 5617 5615 5613 5610 5608 5606 5603 5600 5597 5593
5649 5648 5648 5648 5648 5648 5649 5649 5649 5649 5648 5647 5645 5644 5642 5641 5640 5640 5638 5637 5636 5635 5634 5632 5631 5629 5628 5627 5625 5623 5621 5618 5616 5614 5612 5610 5608 5605 5602 5599 5596 5593 5589
5648 5648 5647 5647 5647 5647 5647 5647 5646 5646 5646 5644 5643 5643 5641 5640 5638 5637 5636 5634 5632 5631 5630 5629 5628 5626 5626 5624 5622 5620 5618 5616 5613 5611 5609 5607 5604 5601 5598 5595 5592 5589 5584
5646 5646 5646 5646 5646 5646 5646 5645 5644 5644 5643 5643 5642 5641 5640 5638 5637 5636 5633 5631 5630 5629 5627 5626 5625 5624 5623 5621 5619 5618 5615 5612 5610 5607 5605 5603 5601 5597 5594 5591 5588 5584 5580
5646 5646 5646 5645 5645 5645 5645 5644 5643 5643 5642 5641 5640 5639 5638 5636 5635 5634 5631 5630 5628 5626 5625 5624 5623 5621 5620 5619 5617 5615 5612 5610 5607 5604 5602 5599 5596 5593 5589 5586 5583 5579 5576
5646 5645 5645 5645 5644 5644 5644 5643 5642 5641 5640 5639 5638 5637 5636 5634 5633 5631 5630 5628 5626 5625 5624 5622 5621 5620 5619 5617 5614 5612 5610 5607 5604 5602 5599 5595 5592 5588 5585 5581 5576 5573 5570
5646 5645 5645 5644 5644 5643 5643 5641 5640 5639 5638 5638 5637 5636 5635 5633 5632 5630 5628 5627 5625 5623 5622 5621 5619 5618 5616 5615 5612 5609 5607 5604 5602 5599 5596 5592 5588 5583 5579 5575 5570 5567 5564
5646 5645 5644 5643 5642 5642 5641 5639 5638 5637 5638 5637 5637 5636 5634 5633 5631 5629 5627 5625 5624 5622 5620 5619 5617 5616 5614 5613 5610 5607 5604 5601 5598 5595 5592 5588 5584 5579 5575 5570 5565 5560 5556
5645 5645 5643 5642 5641 5641 5640 5638 5637 5637 5637 5637 5636 5634 5633 5632 5631 5628 5626 5624 5622 5621 5619 5617 5616 5614 5612 5610 5608 5605 5602 5599 5595 5591 5588 5584 5579 5574 5570 5565 5560 5555 5550
5644 5643 5642 5641 5640 5639 5639 5637 5637 5637 5636 5635 5634 5633 5632 5631 5629 5627 5625 5623 5622 5620 5618 5616 5614 5612 5610 5608 5605 5603 5599 5596 5591 5588 5583 5579 5575 5570 5565 5560 5555 5550 5545
5642 5642 5641 5640 5639 5639 5638 5637 5637 5637 5636 5634 5633 5632 5631 5629 5628 5627 5625 5623 5622 5620 5618 5616 5613 5610 5608 5605 5603 5599 5596 5593 5588 5584 5579 5575 5570 5565 5560 5555 5550 5545 5539
5642 5641 5640 5639 5639 5639 5638 5638 5637 5636 5635 5633 5632 5631 5630 5629 5627 5626 5624 5623 5622 5620 5618 5615 5612 5609 5606 5604 5600 5596 5593 5589 5584 5579 5575 5571 5567 5562 5557 5551 5545 5540 5534
5641 5640 5640 5639 5639 5638 5638 5638 5637 5636 5634 5632 5631 5629 5628 5628 5626 5625 5624 5623 5622 5621 5618 5615 5611 5608 5605 5601 5597 5593 5589 5585 5580 5575 5571 5566 5561 5556 5551 5546 5541 5535 5530